CZ-2D DEB (53762 NORAD) Tracking and Keplerian Element Data

This shows tracking and keplerian element data for the satellite.

Feedback or suggestion? Click here.




ElementValue
Catalog53762
NameCZ-2D DEB
Epoch Orbit316
Epoch Day270.13515968
Epoch Year2022
RAAN253.5746
Inclination34.9969
Eccentricity0.0007708
Argument of Perigee97.7482
Mean Anonmoly313.4942
Mean Motion15.24230449
Decay Rate0.00017243
L11 53762U 22109C 22270.13515968 .00017243 00000+0 68935-3 0 9998
L22 53762 34.9969 253.5746 0007708 97.7482 313.4942 15.24230449 3166



Live tracking and technical data element details for CZ-2D DEB (NORAD 53762). CZ-2D DEB can be tracked NOW for your location showing map with azimuth and elevation plus other details from your city location.







IsCatalogInMostPopularTable: catalog: 53762, numindb: -1

Insert: records affected: 1


GetName: 53762 CZ-2D DEB

Hit Count: inserted at: Thu, 08 Dec 2022 08:38:29 GMT